Weather reports worldwide

Advertisment
Barranda, Spain (8365): temperature & dewpoint: 13.07.2018 13:00:00 - 19.07.2018 13:00:00 (CEST)Barranda, Spain (8365): wind speed & gusts: 13.07.2018 13:00:00 - 19.07.2018 13:00:00 (CEST)Barranda, Spain (8365): wind direction: 13.07.2018 13:00:00 - 19.07.2018 13:00:00 (CEST)Barranda, Spain (8365): reduced air pressure: 13.07.2018 13:00:00 - 19.07.2018 13:00:00 (CEST)Barranda, Spain (8365): visibility: 13.07.2018 13:00:00 - 19.07.2018 13:00:00 (CEST)Barranda, Spain (8365): sunshine duration: 13.07.2018 13:00:00 - 19.07.2018 13:00:00 (CEST)Barranda, Spain (8365): precipitation: 13.07.2018 13:00:00 - 19.07.2018 13:00:00 (CEST)
Date & Time tt [°C] td [°C] ff [km/h] ff [kn] fx [km/h] fx [kn] dd ppp [hPa] vv [km] sd [min] rr [mm]
19.07.2018 13:00:00 33,1 12,6 7 4 17 9 E 1012,0 20 60 0,0
19.07.2018 12:00:00 30,6 12,5 7 4 14 7 ENE 1013,1 20 60 0,0
19.07.2018 11:00:00 28,8 10,9 6 3 12 6 E 1013,6 20 60 0,0
19.07.2018 10:00:00 25,7 12,8 4 2 9 5 SE 1014,6 20 60 0,0
19.07.2018 09:00:00 22,1 11,8 2 1 5 3 ESE 1015,2 20 60 0,0
19.07.2018 08:00:00 17,4 11,9 3 1 15 8 W 1016,0 20 15 -
19.07.2018 07:00:00 17,1 7,7 14 8 22 12 W 1016,1 20 0 0,0
19.07.2018 06:00:00 15,6 11,0 5 3 8 5 WSW 1016,5 20 0 0,0
19.07.2018 05:00:00 17,2 11,7 1 1 16 9 SSW 1015,9 20 0 0,0
19.07.2018 04:00:00 17,2 12,7 5 3 11 6 W 1015,9 20 0 0,0
19.07.2018 03:00:00 19,4 13,4 9 5 16 9 WSW 1015,3 20 0 0,0
19.07.2018 02:00:00 19,2 13,9 6 3 10 5 WNW 1015,7 20 0 -
19.07.2018 01:00:00 21,6 14,7 3 2 12 7 W 1015,4 20 0 0,0
19.07.2018 00:00:00 22,9 15,3 6 3 16 9 WSW 1014,8 20 0 0,0
18.07.2018 23:00:00 24,6 15,3 11 6 23 12 SSW 1014,2 20 0 0,0
18.07.2018 22:00:00 25,9 15,3 12 6 22 12 WSW 1013,1 20 0 0,0
18.07.2018 21:00:00 28,2 13,7 6 3 20 11 SW 1012,1 20 0 0,0
18.07.2018 20:00:00 29,8 11,3 13 7 31 17 E 1011,3 20 50 -
18.07.2018 19:00:00 31,0 10,9 16 9 30 16 E 1010,8 20 60 0,0
18.07.2018 18:00:00 32,0 10,6 15 8 30 16 E 1010,7 20 60 0,0
18.07.2018 17:00:00 32,1 9,6 16 8 30 16 E 1010,7 20 60 0,0
18.07.2018 16:00:00 32,7 8,9 15 8 29 15 E 1010,9 20 60 0,0
18.07.2018 15:00:00 32,9 8,4 9 5 24 13 E 1011,5 20 60 0,0
18.07.2018 14:00:00 31,3 8,3 6 3 21 12 NNE 1012,7 20 60 -
18.07.2018 13:00:00 31,2 8,3 8 4 16 9 E 1013,3 20 60 0,0
18.07.2018 12:00:00 29,4 7,8 6 4 16 8 E 1014,2 20 60 0,0
18.07.2018 11:00:00 27,6 7,4 6 3 13 7 E 1014,6 20 60 0,0
18.07.2018 10:00:00 25,4 7,6 5 3 9 5 ESE 1015,3 20 60 0,0
18.07.2018 09:00:00 20,9 6,8 5 3 9 5 SW 1016,2 20 41 0,0
18.07.2018 08:00:00 16,5 7,7 3 2 14 7 W 1016,3 20 0 -
18.07.2018 07:00:00 15,5 7,0 5 3 20 11 W 1016,5 20 0 0,0
18.07.2018 06:00:00 17,1 5,6 10 5 18 10 W 1015,8 20 0 0,0
18.07.2018 05:00:00 18,2 5,8 6 3 18 10 W 1015,8 20 0 0,0
18.07.2018 04:00:00 17,5 6,4 3 2 13 7 SW 1016,5 20 0 0,0
18.07.2018 03:00:00 18,4 6,2 4 2 14 8 W 1016,5 20 0 0,0
18.07.2018 02:00:00 17,5 7,0 3 2 7 4 W 1017,2 20 0 -
18.07.2018 01:00:00 19,8 5,8 8 4 14 8 WSW 1016,5 20 0 0,0
18.07.2018 00:00:00 19,6 7,7 5 3 9 5 NW 1016,5 20 0 0,0
17.07.2018 23:00:00 21,6 7,4 5 3 9 5 NW 1016,0 20 0 0,0
17.07.2018 22:00:00 23,9 7,1 4 2 16 9 NW 1014,9 20 0 0,0
17.07.2018 21:00:00 26,9 6,8 7 4 24 13 ESE 1013,6 20 0 0,0
17.07.2018 20:00:00 28,6 7,3 13 7 35 19 E 1012,8 20 50 -
17.07.2018 19:00:00 30,2 7,4 16 8 40 21 E 1012,1 20 60 0,0
17.07.2018 18:00:00 33,4 5,0 8 5 23 13 SSW 1011,2 20 60 0,0
17.07.2018 17:00:00 34,0 3,8 16 8 29 16 SSW 1011,8 20 60 0,0
17.07.2018 16:00:00 35,4 2,9 11 6 30 16 S 1011,9 20 60 0,0
17.07.2018 15:00:00 34,7 2,3 11 6 29 16 SE 1012,5 20 60 0,0
17.07.2018 14:00:00 33,9 3,6 11 6 32 17 SE 1013,4 20 60 -
17.07.2018 13:00:00 32,3 7,1 11 6 25 13 E 1014,0 20 60 0,0
17.07.2018 12:00:00 31,0 6,1 9 5 18 10 E 1014,8 20 60 0,0
17.07.2018 11:00:00 30,0 4,6 5 3 10 6 ESE 1015,1 20 60 0,0
17.07.2018 10:00:00 27,5 5,1 4 2 7 4 ESE 1016,2 20 60 0,0
17.07.2018 09:00:00 22,4 6,5 2 1 8 4 NE 1017,4 12 60 0,0
17.07.2018 08:00:00 17,7 5,9 3 2 16 8 NNW 1018,4 20 47 -
17.07.2018 07:00:00 17,2 4,5 4 2 23 12 W 1018,0 20 0 0,0
17.07.2018 06:00:00 17,4 5,0 7 4 16 9 WSW 1017,8 20 0 0,0
17.07.2018 05:00:00 17,9 4,1 7 4 24 13 W 1017,3 20 0 0,0
17.07.2018 04:00:00 19,5 3,9 16 9 22 12 WSW 1017,1 20 0 0,0
17.07.2018 03:00:00 20,6 4,1 13 7 21 11 WSW 1017,2 20 0 0,0
17.07.2018 02:00:00 21,3 4,3 14 8 19 10 WSW 1017,3 20 0 -
17.07.2018 01:00:00 21,2 4,6 5 3 9 5 WSW 1017,3 20 0 0,0
17.07.2018 00:00:00 24,0 5,8 7 4 16 9 W 1016,8 20 0 0,0
16.07.2018 23:00:00 24,9 6,1 8 4 16 8 W 1016,2 20 0 0,0
16.07.2018 22:00:00 26,5 6,5 10 5 21 11 W 1014,9 20 0 0,0
16.07.2018 21:00:00 28,3 6,4 9 5 18 10 W 1013,9 20 0 0,0
16.07.2018 20:00:00 30,9 3,0 5 3 19 10 NNE 1012,7 20 51 -
16.07.2018 19:00:00 31,7 2,9 8 4 23 12 NE 1012,2 20 60 0,0
16.07.2018 18:00:00 32,5 1,5 11 6 27 15 ENE 1012,1 20 60 0,0
16.07.2018 17:00:00 32,5 1,5 11 6 24 13 NE 1012,5 20 60 0,0
16.07.2018 16:00:00 32,3 2,3 11 6 29 15 E 1012,9 20 60 0,0
16.07.2018 15:00:00 32,0 3,0 14 8 26 14 E 1013,5 20 60 0,0
16.07.2018 14:00:00 31,6 3,6 13 7 22 12 E 1014,2 20 60 -
16.07.2018 13:00:00 30,4 3,4 11 6 20 11 NE 1014,8 20 60 0,0
16.07.2018 12:00:00 29,3 5,3 11 6 26 14 ESE 1015,2 20 60 0,0
16.07.2018 11:00:00 27,2 6,1 8 4 29 15 W 1015,7 20 60 0,0
16.07.2018 10:00:00 25,3 7,8 6 3 23 12 NNW 1016,1 20 60 0,0
16.07.2018 09:00:00 22,6 8,3 7 4 28 15 WSW 1016,6 20 60 0,0
16.07.2018 08:00:00 18,0 9,0 5 3 9 5 WSW 1017,7 20 49 -
16.07.2018 07:00:00 14,8 8,5 4 2 10 5 NW 1018,4 20 0 0,0
16.07.2018 06:00:00 16,1 8,8 4 2 8 4 W 1017,6 20 0 0,0
16.07.2018 05:00:00 17,6 8,1 4 2 13 7 SSW 1016,9 20 0 0,0
16.07.2018 04:00:00 18,0 7,7 3 2 8 5 WSW 1016,6 20 0 0,0
16.07.2018 03:00:00 21,6 6,7 5 3 18 10 ENE 1015,6 20 0 0,0
16.07.2018 02:00:00 21,6 4,6 5 3 15 8 NW 1015,5 20 0 -
16.07.2018 01:00:00 21,3 1,1 4 2 13 7 S 1015,1 20 0 0,0
16.07.2018 00:00:00 25,2 2,7 7 4 27 14 SW 1013,2 20 0 0,0
15.07.2018 23:00:00 26,6 3,8 9 5 24 13 W 1012,4 20 0 0,0
15.07.2018 22:00:00 27,5 9,8 5 3 23 13 NNW 1011,4 20 0 0,0
15.07.2018 21:00:00 29,3 10,9 8 4 24 13 N 1009,9 20 0 0,0
15.07.2018 20:00:00 32,6 8,1 7 4 24 13 E 1008,1 20 34 -
15.07.2018 19:00:00 33,1 6,4 10 5 23 13 SW 1008,4 20 26 0,0
15.07.2018 18:00:00 34,9 7,8 8 5 32 17 S 1008,4 20 52 0,0
15.07.2018 17:00:00 35,2 8,9 13 7 32 17 S 1008,7 20 39 0,0
15.07.2018 16:00:00 36,1 8,0 11 6 28 15 ESE 1009,1 20 51 0,0
15.07.2018 15:00:00 34,8 7,7 13 7 23 12 E 1010,1 20 43 0,0
15.07.2018 14:00:00 34,0 5,5 9 5 25 14 E 1010,9 20 52 -
15.07.2018 13:00:00 34,2 8,0 11 6 22 12 E 1012,0 20 60 0,0
15.07.2018 12:00:00 31,1 8,8 7 4 15 8 E 1013,4 20 60 0,0
15.07.2018 11:00:00 30,1 10,0 8 5 16 9 E 1014,2 19 60 0,0
15.07.2018 10:00:00 28,5 9,7 3 2 13 7 S 1015,0 20 60 0,0
15.07.2018 09:00:00 23,5 5,5 9 5 17 9 WSW 1016,3 20 60 0,0
15.07.2018 08:00:00 20,0 4,8 11 6 19 10 W 1017,0 20 3 -
15.07.2018 07:00:00 18,2 3,9 14 8 21 12 W 1017,2 20 0 0,0
15.07.2018 06:00:00 18,1 8,9 3 2 14 7 W 1017,0 20 0 0,0
15.07.2018 05:00:00 19,2 8,8 8 4 14 8 W 1016,7 20 0 0,0
15.07.2018 04:00:00 18,2 9,8 4 2 10 5 SW 1017,0 20 0 0,0
15.07.2018 03:00:00 19,3 10,0 5 3 10 5 W 1016,8 20 0 0,0
15.07.2018 02:00:00 21,7 10,8 4 2 26 14 NNW 1016,3 20 0 -
15.07.2018 01:00:00 22,9 10,3 18 10 28 15 WSW 1015,9 20 0 0,0
15.07.2018 00:00:00 24,6 9,3 14 7 28 15 WSW 1015,7 20 0 0,0
14.07.2018 23:00:00 25,8 9,6 13 7 27 15 WSW 1015,3 20 0 0,0
14.07.2018 22:00:00 28,0 9,8 16 8 24 13 W 1013,5 20 0 0,0
14.07.2018 21:00:00 30,5 10,4 11 6 21 12 WSW 1012,3 20 0 0,0
14.07.2018 20:00:00 33,0 11,0 10 5 22 12 SW 1011,1 20 49 -
14.07.2018 19:00:00 34,7 11,8 13 7 29 15 SSW 1010,4 20 60 0,0
14.07.2018 18:00:00 34,3 12,6 6 3 32 17 NNE 1011,2 20 52 0,0
14.07.2018 17:00:00 33,8 12,7 14 7 32 17 ENE 1011,5 20 51 0,0
14.07.2018 16:00:00 36,5 12,0 10 5 - - N 1011,3 20 60 0,0
14.07.2018 15:00:00 35,7 13,3 7 4 24 13 E 1012,0 20 60 0,0
14.07.2018 14:00:00 34,2 14,1 12 6 25 14 ESE 1013,0 20 60 -
14.07.2018 13:00:00 32,8 14,4 9 5 19 11 ENE 1013,8 20 60 0,0
14.07.2018 12:00:00 31,3 16,5 5 3 14 7 ENE 1014,6 18 60 0,0
14.07.2018 11:00:00 29,1 17,3 7 4 13 7 ESE 1015,3 19 60 0,0
14.07.2018 10:00:00 26,4 17,2 3 1 8 4 N 1016,0 20 60 0,0
14.07.2018 09:00:00 24,0 17,0 3 2 11 6 ESE 1016,3 19 60 0,0
14.07.2018 08:00:00 20,3 16,3 1 1 12 6 NE 1017,2 18 33 -
14.07.2018 07:00:00 18,9 15,8 6 4 12 6 W 1017,0 15 0 0,0
14.07.2018 06:00:00 18,1 15,5 3 2 7 4 W 1016,9 12 0 0,0
14.07.2018 05:00:00 19,5 16,3 6 3 10 5 W 1016,4 15 0 0,0
14.07.2018 04:00:00 20,2 16,2 3 2 16 9 W 1016,4 17 0 0,0
14.07.2018 03:00:00 21,1 16,9 5 3 16 9 WNW 1016,4 19 0 0,0
14.07.2018 02:00:00 22,0 17,5 8 4 17 9 SW 1016,5 20 0 -
14.07.2018 01:00:00 22,5 17,2 7 4 13 7 WSW 1016,8 20 0 0,0
14.07.2018 00:00:00 22,6 16,8 7 4 13 7 W 1016,6 20 0 0,0
13.07.2018 23:00:00 22,7 15,3 4 2 8 4 NNW 1016,2 20 0 0,0
13.07.2018 22:00:00 24,3 15,3 4 2 18 10 N 1014,8 20 0 0,0
13.07.2018 21:00:00 26,3 15,3 9 5 24 13 ENE 1013,6 20 0 0,0
13.07.2018 20:00:00 28,4 13,2 15 8 29 16 E 1012,6 20 54 -
13.07.2018 19:00:00 30,3 11,8 13 7 28 15 E 1011,7 20 58 0,0
13.07.2018 18:00:00 30,9 12,3 13 7 26 14 E 1011,8 20 60 0,0
13.07.2018 17:00:00 30,5 12,4 13 7 27 15 E 1012,0 20 17 0,0
13.07.2018 16:00:00 31,5 13,3 12 6 29 16 ESE 1011,9 20 46 0,0
13.07.2018 15:00:00 31,5 11,3 13 7 27 14 ENE 1012,2 20 60 0,0
13.07.2018 14:00:00 31,4 11,8 8 5 25 13 ENE 1012,3 20 60 -
13.07.2018 13:00:00 29,4 14,0 9 5 21 11 ENE 1013,5 20 60 0,0

tt = temperature
td = dewpoint
ff = wind speed
fx = gusts
dd = wind direction
ppp = reduced air pressure
vv = visibility
sd = sunshine duration
rr = precipitation

Next stations